Location: Владивосток
(43.1151°N, 131.8856°E)
Time: 08:36:24
(UTC+10:00)

RS-44 - Visible Passes

Search period start: 19 April 2024 00:00
Search period end: 29 April 2024 00:00
Orbit: 1175 x 1510 km, 82.5° (Epoch: 18 April)

Date Brightness Start Highest point End Pass type
(mag) Time Alt. Az. Time Alt. Az. Time Alt. Az.
19 Apr ? 21:30:37 10° SSW 21:39:31 75° W 21:48:05 10° N visible
19 Apr ? 23:29:13 10° W 23:34:26 17° WNW 23:39:34 10° NNW visible
20 Apr ? 21:54:55 10° SSW 22:03:28 51° WNW 22:11:42 10° N visible
20 Apr ? 23:58:31 10° WNW 23:59:10 10° NW 23:59:49 10° NW visible
21 Apr ? 20:25:13 10° SSE 20:33:48 57° E 20:42:02 10° NNE visible
21 Apr ? 22:19:46 10° SW 22:27:35 34° WNW 22:35:07 10° N visible
22 Apr ? 20:48:37 10° S 20:57:29 84° E 21:05:58 10° N visible
22 Apr ? 22:45:21 10° WSW 22:51:54 23° WNW 22:58:15 10° NNW visible
23 Apr ? 21:12:32 10° SSW 21:21:19 68° W 21:29:43 10° N visible
23 Apr ? 23:12:02 10° W 23:16:25 15° WNW 23:20:43 10° NNW visible
24 Apr ? 21:36:58 10° SW 21:45:18 46° WNW 21:53:17 10° N visible
25 Apr ? 05:37:53 10° NNE 05:41:22 13° ENE 05:44:48 10° E visible
25 Apr ? 22:02:01 10° SW 22:09:28 30° WNW 22:16:37 10° N visible
26 Apr ? 20:30:26 10° S 20:39:16 88° W 20:47:37 10° N visible
26 Apr ? 22:27:50 10° WSW 22:33:49 20° WNW 22:39:36 10° NNW visible
27 Apr ? 20:54:29 10° SSW 21:03:07 61° WNW 21:11:19 10° N visible
27 Apr ? 22:55:07 10° W 22:58:23 12° NW 23:01:36 10° NNW visible
28 Apr ? 21:19:05 10° SW 21:27:09 41° WNW 21:34:48 10° N visible
